Regional Weather Roundup
Issued by NWS Cleveland, OH

Home | Current Version | Previous Version | Graphics & Text | Print | Product List | Glossary On
Versions: 1 2 3 4 5 6 7 8 9 10 11 12 13 14 15 16 17 18 19 20 21 22 23 24 25 26 27 28 29 30 31 32 33 34 35 36 37 38 39 40 41 42 43 44 45 46 47 48 49 50
000
ASUS41 KCLE 060000
RWRCLE
OHIO REGIONAL WEATHER ROUNDUP
NATIONAL WEATHER SERVICE WILMINGTON, OH
800 PM EDT SUN JUL 05 2015

NOTE: "FAIR" INDICATES FEW OR NO CLOUDS BELOW 12,000 FEET WITH NO
SIGNIFICANT WEATHER AND/OR OBSTRUCTIONS TO VISIBILITY.

OHZ001>008-015>018-024>027-034-035-043-044-060100-
   NORTHWEST OHIO

CITY           SKY/WX    TMP DP  RH WIND       PRES   REMARKS
DEFIANCE       MOSUNNY   79  58  48 NE5       30.07S
FINDLAY        CLOUDY    77  61  57 SE5       30.07S
TOLEDO EXPRESS PTSUNNY   76  56  49 E6        30.08S
TOLEDO EXEC    PTSUNNY   76  54  46 NE6       30.09S
LIMA           CLOUDY    75  60  59 SE7       30.08S
$$

OHZ009>014-019>023-028>033-038-089-060100-
   NORTHEAST OHIO

CITY           SKY/WX    TMP DP  RH WIND       PRES   REMARKS
CLE-HOPKINS    CLOUDY    72  61  68 N6        30.11S
CLE-LAKEFRONT  CLOUDY    71  65  81 NE7       30.08S
CUY CO. ARPT   CLOUDY    73  64  73 E7        30.11R
LORAIN-ELYRIA  CLOUDY    72  60  66 E6        30.10S
ASHTABULA      CLOUDY    72  62  71 CALM      30.12S
AKRON-CANTON   CLOUDY    75  56  51 E7        30.10F
WOOSTER        NOT AVBL
MANSFIELD      CLOUDY    73  63  70 CALM      30.11S
YOUNGSTOWN     CLOUDY    72  58  61 CALM      30.11S
$$

OHZ042-051>053-060>062-070>072-077>081-060100-
  SOUTHWEST OHIO

CITY           SKY/WX    TMP DP  RH WIND       PRES   REMARKS
CINC-COVINGTON PTSUNNY   76  61  59 N7        30.06F
CINC-LUNKEN    CLOUDY    75  66  73 NE5       30.06R
HAMILTON       CLOUDY    76  65  68 N3        30.07S
DAYTON         NOT AVBL
WRIGHT-PAT AFB NOT AVBL
DAYTON GENERAL CLOUDY    73  63  70 E5        30.07S
WILMINGTON     CLOUDY    73  64  73 NE3       30.08R
$$

OHZ036-037-039>041-045>050-054>059-063>069-073>076-082>088-060100-
  CENTRAL AND SOUTHEAST OHIO

CITY           SKY/WX    TMP DP  RH WIND       PRES   REMARKS
COLUMBUS       CLOUDY    76  64  66 NE6       30.07R
OSU AIRPORT    PTSUNNY   75  63  66 NE3       30.08R
BOLTON FIELD   NOT AVBL
RICKENBACK AFB NOT AVBL
NEWARK         MOCLDY    77  64  64 N3        30.07S
MARION         CLOUDY    74  62  66 SE5       30.09S
LANCASTER      CLOUDY    76  66  71 CALM      30.07S
ZANESVILLE     CLOUDY    76  64  66 N3        30.07S
NEW PHILLY     CLOUDY    75  64  68 NE5       30.09S
$$



USA.gov is the U.S. government's official web portal to all federal, state and local government web resources and services.